FW0324 Weather Reports


time (UTC)temp
C
wind
direction
speed
KPH
gust
KPH
rain 1hr
cm
rain 24hr
cm
rain mn
cm
humidity
%
barometer
mb
20260510144030 22 55 4.8 14.5 0.00 2.87 0.00 89 1016.1
20260510143528 22 53 6.4 14.5 0.00 2.87 0.00 88 1016.3
20260510143027 22 68 3.2 9.7 0.00 2.87 0.00 90 1016.3
20260510142525 22 56 3.2 9.7 0.00 2.87 0.00 91 1016.3
20260510142024 22 38 3.2 12.9 0.00 2.87 0.00 92 1016.2
20260510141523 21 44 6.4 12.9 0.00 2.87 0.00 92 1016.1
20260510141024 21 43 3.2 11.3 0.00 2.87 0.00 93 1016.0
20260510140520 21 112 3.2 14.5 0.00 2.87 0.00 93 1016.1
20260510140023 21 49 6.4 14.5 0.00 3.17 0.00 94 1016.1
20260510135520 21 79 4.8 16.1 0.00 3.17 0.00 95 1016.2
20260510135018 21 66 4.8 16.1 0.00 3.17 0.00 95 1016.0
20260510134516 21 69 4.8 12.9 0.00 3.17 0.00 95 1015.8
20260510134019 21 57 3.2 9.7 0.00 3.17 0.00 95 1015.8
20260510133514 20 31 4.8 9.7 0.00 3.17 0.00 95 1015.8
20260510133014 20 75 3.2 9.7 0.00 3.17 0.00 95 1015.9
20260510132513 20 71 4.8 9.7 0.00 3.17 0.00 95 1015.8
20260510132013 20 74 3.2 9.7 0.00 3.17 0.00 95 1015.8
20260510131511 20 31 3.2 9.7 0.00 3.17 0.00 95 1015.7
20260510131011 20 57 3.2 9.7 0.00 3.17 0.00 95 1015.4
20260510130511 20 38 4.8 14.5 0.00 3.17 0.00 95 1015.3
20260510130008 20 52 4.8 14.5 0.00 3.20 0.00 95 1015.3
20260510125507 20 49 3.2 11.3 0.00 3.20 0.00 95 1015.2
20260510125009 20 44 3.2 11.3 0.00 3.20 0.00 95 1015.1
20260510124505 20 49 1.6 6.4 0.00 3.20 0.00 95 1015.0
20260510124004 20 34 3.2 6.4 0.00 3.20 0.00 95 1014.8
20260510123503 19 32 1.6 6.4 0.00 3.20 0.00 95 1014.8
20260510123003 19 57 1.6 4.8 0.00 3.20 0.00 95 1014.8
20260510122502 19 27 1.6 4.8 0.00 3.20 0.00 94 1014.8
20260510122100 19 23 1.6 4.8 0.00 3.20 0.00 95 1014.6
20260510121559 18 59 0.0 3.2 0.00 3.20 0.00 94 1014.5
20260510121101 18 59 0.0 3.2 0.00 3.20 0.00 94 1014.4
20260510120558 18 64 1.6 3.2 0.00 3.20 0.00 95 1014.4
20260510120057 18 40 0.0 4.8 0.00 3.20 0.00 94 1014.4
20260510115555 18 61 1.6 4.8 0.00 3.20 0.00 94 1014.3
20260510115054 17 59 1.6 4.8 0.00 3.20 0.00 94 1014.2
20260510114613 17 66 1.6 3.2 0.00 3.20 0.00 94 1014.1
20260510114053 17 50 0.0 1.6 0.00 3.20 0.00 94 1014.0
20260510113551 17 50 0.0 1.6 0.00 3.20 0.00 94 1013.9
20260510113057 17 50 0.0 0.0 0.00 3.20 0.00 94 1013.8
20260510112549 17 50 0.0 1.6 0.00 3.20 0.00 94 1013.7
20260510112049 17 50 0.0 1.6 0.00 3.20 0.00 94 1013.5
20260510111547 17 50 0.0 0.0 0.00 3.20 0.00 94 1013.3
20260510111046 17 50 0.0 0.0 0.00 3.20 0.00 94 1013.2
20260510110545 17 50 0.0 0.0 0.00 3.20 0.00 94 1013.1
20260510110055 17 50 0.0 0.0 0.00 3.20 0.00 94 1013.1
20260510105544 17 50 0.0 0.0 0.00 3.20 0.00 94 1012.9
20260510105043 17 50 0.0 0.0 0.00 3.20 0.00 94 1012.8
20260510104546 17 50 0.0 0.0 0.00 3.20 0.00 94 1012.8
20260510104043 17 50 0.0 0.0 0.00 3.20 0.00 94 1012.7
20260510103543 17 50 0.0 0.0 0.00 3.20 0.00 94 1012.8
20260510103049 18 50 0.0 0.0 0.00 3.20 0.00 94 1012.6
20260510102540 18 50 0.0 0.0 0.00 3.20 0.00 94 1012.5
20260510102040 18 50 0.0 0.0 0.00 3.20 0.00 94 1012.5
20260510101549 18 50 0.0 0.0 0.00 3.20 0.00 94 1012.4
20260510101039 18 50 0.0 0.0 0.00 3.20 0.00 94 1012.5
20260510100539 18 50 0.0 1.6 0.00 3.20 0.00 94 1012.4
20260510100048 18 50 0.0 1.6 0.00 3.20 0.00 94 1012.4
20260510095538 18 50 0.0 1.6 0.00 3.20 0.00 94 1012.5
20260510095040 18 50 0.0 1.6 0.00 3.20 0.00 94 1012.5
20260510094544 18 50 0.0 1.6 0.00 3.20 0.00 94 1012.6
20260510094037 18 50 0.0 0.0 0.00 3.20 0.00 94 1012.6
20260510093537 18 50 0.0 1.6 0.00 3.20 0.00 94 1012.7
20260510093039 18 50 0.0 1.6 0.00 3.20 0.00 94 1012.6
20260510092536 18 50 0.0 1.6 0.00 3.20 0.00 94 1012.5
20260510092035 18 50 0.0 1.6 0.00 3.20 0.00 94 1012.5
20260510091535 18 50 0.0 1.6 0.00 3.20 0.00 94 1012.5
20260510091036 18 50 0.0 1.6 0.00 3.20 0.00 94 1012.5
20260510090535 18 50 0.0 3.2 0.00 3.20 0.00 94 1012.5
20260510090034 18 50 0.0 3.2 0.00 3.20 0.00 94 1012.4
20260510085533 18 30 0.0 3.2 0.00 3.20 0.00 94 1012.5
20260510085033 18 30 0.0 1.6 0.00 3.20 0.00 94 1012.4
20260510084535 18 30 0.0 1.6 0.00 3.20 0.00 94 1012.5
20260510084032 18 30 0.0 1.6 0.00 3.20 0.00 94 1012.5
20260510083532 18 30 0.0 3.2 0.00 3.20 0.00 94 1012.6
20260510083031 18 30 0.0 3.2 0.00 3.20 0.00 94 1012.4
20260510082530 18 35 0.0 3.2 0.00 3.20 0.00 94 1012.4
20260510082030 18 41 0.0 3.2 0.00 3.20 0.00 94 1012.5
20260510081631 18 11 1.6 3.2 0.00 3.20 0.00 94 1012.4
20260510081029 18 355 0.0 3.2 0.00 3.20 0.00 94 1012.5
20260510080528 18 355 0.0 3.2 0.00 3.20 0.00 94 1012.2
20260510080047 18 355 0.0 3.2 0.00 3.20 0.00 94 1012.2
20260510075528 18 355 0.0 3.2 0.00 3.20 0.00 94 1012.2
20260510075027 18 48 0.0 0.0 0.00 3.20 0.00 94 1012.0
20260510074527 18 47 0.0 0.0 0.00 3.20 0.00 94 1011.9
20260510074029 18 48 0.0 0.0 0.00 3.20 0.00 94 1011.9
20260510073525 18 47 0.0 0.0 0.00 3.20 0.00 94 1011.8
20260510073037 18 48 0.0 0.0 0.00 3.20 0.00 94 1011.8
20260510072525 18 48 0.0 1.6 0.00 3.20 0.00 94 1011.8
20260510072025 18 47 0.0 3.2 0.00 3.20 0.00 94 1011.7
20260510071524 18 48 0.0 3.2 0.00 3.20 0.00 94 1011.8
20260510071023 18 47 0.0 1.6 0.00 3.20 0.00 94 1011.8
20260510070523 18 48 0.0 1.6 0.00 3.20 0.00 94 1011.7
20260510070025 18 48 0.0 3.2 0.00 3.20 0.00 94 1011.7
20260510065522 18 48 0.0 3.2 0.00 3.20 0.00 94 1011.8
20260510065021 19 9 1.6 3.2 0.00 3.20 0.00 94 1011.8
20260510064520 19 70 0.0 3.2 0.00 3.20 0.00 94 1011.7
20260510064021 19 50 0.0 3.2 0.00 3.20 0.00 94 1011.8
20260510063521 19 50 0.0 4.8 0.00 3.20 0.00 94 1011.7
20260510063020 19 49 1.6 4.8 0.00 3.20 0.00 94 1011.9
20260510062519 19 34 0.0 4.8 0.00 3.20 0.00 94 1011.9
20260510062020 19 34 0.0 6.4 0.00 3.20 0.00 94 1011.9
20260510061519 19 12 3.2 9.7 0.00 3.20 0.00 94 1012.1
20260510061018 19 355 3.2 9.7 0.00 3.20 0.00 94 1012.2
20260510060517 19 5 3.2 8.0 0.00 3.20 0.00 94 1012.2
20260510060032 19 355 1.6 16.1 0.00 3.20 0.00 94 1012.1
20260510055521 19 321 4.8 17.7 0.00 3.20 0.00 94 1012.2
20260510055015 19 355 8.0 17.7 0.00 3.20 0.00 94 1012.1
20260510054518 19 350 4.8 8.0 0.00 3.20 0.00 94 1011.9
20260510054014 19 15 3.2 6.4 0.00 3.20 0.00 94 1011.7
20260510053511 20 132 1.6 9.7 0.00 3.20 0.00 94 1011.5
20260510053011 20 127 3.2 11.3 0.00 3.20 0.00 94 1011.4
20260510052511 20 145 3.2 12.9 0.00 3.20 0.00 94 1011.3
20260510052010 20 131 4.8 14.5 0.00 3.20 0.00 94 1011.1
20260510051510 20 198 6.4 16.1 0.00 3.20 0.00 94 1011.0
20260510051008 20 146 8.0 16.1 0.00 3.20 0.00 94 1011.2
20260510050509 20 198 6.4 12.9 0.00 3.20 0.00 94 1011.3
20260510050009 20 202 4.8 12.9 0.00 3.20 3.20 94 1011.4
20260510045508 20 155 4.8 12.9 0.00 3.20 3.20 94 1011.3
20260510045007 20 157 3.2 17.7 0.00 3.20 3.20 94 1011.5
20260510044506 20 140 4.8 19.3 0.00 3.20 3.20 94 1011.6
20260510044009 20 148 3.2 11.3 0.00 3.20 3.20 94 1011.8
20260510043511 20 150 4.8 11.3 0.00 3.20 3.20 94 1011.7
20260510043007 20 171 4.8 9.7 0.00 3.20 3.20 94 1011.8
20260510042506 20 193 4.8 12.9 0.00 3.20 3.20 94 1011.8
20260510042006 20 177 3.2 9.7 0.00 3.20 3.20 94 1012.0
20260510041505 20 196 3.2 9.7 0.00 3.20 3.20 94 1011.9
20260510041007 20 196 3.2 14.5 0.00 3.20 3.20 94 1012.0
20260510040505 20 163 3.2 14.5 0.00 3.20 3.20 94 1012.2
20260510040010 20 174 4.8 11.3 0.00 3.20 3.20 94 1012.4
20260510035506 20 180 3.2 11.3 0.00 3.20 3.20 94 1012.4
20260510035004 20 173 4.8 11.3 0.00 3.20 3.20 94 1012.5
20260510034504 19 150 4.8 11.3 0.00 3.20 3.20 94 1012.7
20260510034008 19 187 3.2 6.4 0.00 3.20 3.20 94 1012.9
20260510033507 19 187 1.6 6.4 0.00 3.20 3.20 94 1012.9
20260510033004 19 155 1.6 4.8 0.00 3.20 3.20 94 1012.9
20260510032503 19 178 1.6 4.8 0.00 3.20 3.20 94 1013.0
20260510032003 19 194 1.6 4.8 0.00 3.20 3.20 93 1013.2
20260510031507 19 196 3.2 4.8 0.00 3.20 3.20 93 1013.2
20260510031004 19 5 0.0 0.0 0.00 3.20 3.20 93 1013.3
20260510030503 19 5 0.0 0.0 0.00 3.20 3.20 93 1013.4
20260510030004 19 5 0.0 0.0 0.00 3.20 3.20 94 1013.4
20260510025502 20 5 0.0 1.6 0.00 3.20 3.20 94 1013.4
20260510025003 20 5 0.0 1.6 0.00 3.20 3.20 94 1013.5
20260510024504 20 5 0.0 1.6 0.00 3.20 3.20 94 1013.3
20260510024003 20 5 0.0 1.6 0.00 3.20 3.20 94 1013.3
20260510023502 20 5 0.0 1.6 0.00 3.20 3.20 94 1013.4
20260510023002 20 5 0.0 1.6 0.00 3.20 3.20 94 1013.2
20260510022502 20 5 0.0 1.6 0.00 3.20 3.20 94 1013.0
20260510022002 20 5 0.0 3.2 0.00 3.20 3.20 94 1012.9
20260510021507 20 5 1.6 3.2 0.00 3.20 3.20 94 1012.9
20260510021002 20 5 0.0 3.2 0.00 3.20 3.20 94 1012.8
20260510020502 20 5 0.0 3.2 0.00 3.20 3.20 93 1012.7
20260510020002 20 38 0.0 1.6 0.00 3.20 3.20 93 1012.8
20260510015500 20 38 0.0 0.0 0.00 3.20 3.20 93 1012.6
20260510015001 20 37 0.0 0.0 0.00 3.20 3.20 93 1012.7
20260510014601 20 37 0.0 0.0 0.00 3.20 3.20 93 1012.7
20260510014001 20 37 0.0 0.0 0.00 3.20 3.20 93 1012.7
20260510013601 20 37 0.0 3.2 0.00 3.20 3.20 93 1012.5
20260510013119 20 37 0.0 3.2 0.00 3.20 3.20 93 1012.4
20260510012600 20 37 1.6 3.2 0.00 3.20 3.20 93 1012.3
20260510012100 20 141 0.0 3.2 0.00 3.20 3.20 93 1012.3
20260510011600 20 141 0.0 4.8 0.00 3.20 3.20 94 1012.2
20260510011100 20 141 0.0 8.0 0.00 3.20 3.20 94 1012.1
20260510010600 20 128 0.0 4.8 0.00 3.20 3.20 94 1012.2
20260510005559 20 115 1.6 6.4 0.00 3.20 3.20 94 1012.0
20260510005103 20 100 3.2 6.4 0.00 3.20 3.20 94 1011.9
20260510004601 20 122 0.0 12.9 0.00 3.20 3.20 94 1011.9
20260510004058 20 142 3.2 12.9 0.00 3.20 3.20 94 1011.8
20260510003558 20 130 4.8 12.9 0.00 3.20 3.20 93 1011.6
20260510003105 20 118 6.4 12.9 0.00 3.20 3.20 93 1011.7
20260510002559 20 138 4.8 9.7 0.00 3.20 3.20 93 1011.6
20260510002058 20 135 3.2 6.4 0.00 3.20 3.20 93 1011.8
20260510001608 20 136 0.0 6.4 0.00 3.20 3.20 93 1011.7
20260510001058 20 96 3.2 8.0 0.00 3.20 3.20 93 1011.8
20260510000559 20 128 1.6 8.0 0.00 3.20 3.20 93 1011.8
20260510000057 20 119 1.6 9.7 0.00 3.20 3.20 93 1011.7
20260509235556 20 111 1.6 6.4 0.00 3.20 3.20 93 1011.6
20260509235057 20 130 1.6 11.3 0.00 3.20 3.20 93 1011.7
20260509234557 20 123 4.8 11.3 0.00 3.20 3.20 93 1011.7
20260509234057 20 111 1.6 6.4 0.00 3.20 3.20 93 1011.8
20260509233556 20 122 3.2 6.4 0.00 3.20 3.20 93 1011.9
20260509233100 20 121 3.2 4.8 0.00 3.20 3.20 93 1011.8
20260509232556 20 126 1.6 4.8 0.00 3.20 3.20 93 1011.7
20260509232056 20 124 1.6 4.8 0.00 3.20 3.20 93 1011.7
20260509231601 20 125 1.6 4.8 0.03 3.20 3.20 93 1011.7
20260509231056 20 130 0.0 4.8 0.03 3.20 3.20 93 1011.8
20260509230555 20 130 3.2 4.8 0.03 3.20 3.20 93 1011.8
20260509230058 20 112 0.0 4.8 0.05 3.20 3.20 93 1011.8
20260509225555 20 34 0.0 4.8 0.05 3.20 3.20 93 1011.9
20260509225055 20 25 0.0 4.8 0.08 3.20 3.20 93 1011.7
20260509224556 20 340 1.6 4.8 0.08 3.20 3.20 93 1011.8
20260509224055 20 22 0.0 0.0 0.10 3.20 3.20 93 1011.8
20260509223555 20 53 0.0 0.0 0.10 3.20 3.20 93 1011.9
20260509223055 20 121 0.0 0.0 0.13 3.20 3.20 93 1011.9
20260509222553 20 113 0.0 3.2 0.15 3.20 3.20 93 1011.8
20260509222053 20 84 0.0 3.2 0.15 3.20 3.20 93 1011.7
20260509221554 20 55 1.6 3.2 0.15 3.17 3.17 93 1011.9
20260509221054 20 94 0.0 3.2 0.15 3.17 3.17 93 1011.7
20260509220553 20 97 0.0 4.8 0.18 3.17 3.17 94 1011.7
20260509220053 20 125 0.0 4.8 0.18 3.17 3.15 94 1011.6
20260509215552 20 62 0.0 4.8 0.18 3.17 3.15 94 1011.5
20260509215054 20 61 3.2 4.8 0.18 3.15 3.12 94 1011.3
20260509214552 20 360 0.0 3.2 0.20 3.15 3.12 94 1011.4
20260509214051 20 29 0.0 0.0 0.18 3.12 3.10 93 1011.4
20260509213551 20 76 0.0 1.6 0.18 3.10 3.07 93 1011.6
20260509213105 20 77 0.0 1.6 0.20 3.10 3.07 94 1011.7
20260509212552 20 78 0.0 3.2 0.18 3.07 3.05 93 1011.9
20260509212052 20 45 0.0 4.8 0.20 3.07 3.05 94 1012.0
20260509211559 20 51 1.6 4.8 0.20 3.05 3.02 94 1011.7
20260509211052 20 351 1.6 4.8 0.23 3.05 3.02 94 1011.7
20260509210551 20 11 0.0 3.2 0.23 3.02 3.00 94 1011.7
20260509210051 20 43 0.0 1.6 0.23 3.10 2.97 94 1011.7
20260509205552 20 43 0.0 3.2 0.25 3.10 2.97 94 1011.7
20260509205050 20 43 0.0 8.0 0.25 3.07 2.92 94 1011.5
20260509204549 20 56 0.0 8.0 0.25 3.05 2.90 94 1011.4
20260509204049 20 24 3.2 6.4 0.28 3.05 2.90 93 1011.2
20260509203549 20 88 1.6 6.4 0.28 3.02 2.87 94 1011.1
20260509203049 20 90 1.6 9.7 0.28 3.00 2.84 94 1011.0
20260509202549 20 128 1.6 12.9 0.28 2.97 2.84 94 1010.9
20260509202049 20 113 3.2 14.5 0.30 2.97 2.84 94 1010.8
20260509201549 20 101 6.4 14.5 0.30 2.92 2.82 93 1010.8
20260509201048 20 87 3.2 11.3 0.30 2.90 2.79 93 1011.0
20260509200549 20 55 3.2 8.0 0.30 2.87 2.77 93 1011.3
20260509200052 20 107 3.2 14.5 0.30 4.93 2.74 93 1011.6
20260509195548 20 84 3.2 14.5 0.30 4.90 2.72 94 1011.7
20260509195047 20 90 4.8 14.5 0.33 4.88 2.69 94 1011.7
20260509194555 20 59 3.2 14.5 0.33 4.85 2.67 94 1011.9
20260509194047 20 58 3.2 9.7 0.33 4.83 2.64 94 1011.9
20260509193547 20 75 3.2 9.7 0.36 4.80 2.62 94 1011.9
20260509193047 20 76 3.2 9.7 0.36 4.78 2.59 94 1012.2
20260509192546 19 43 3.2 6.4 0.36 4.75 2.57 94 1012.3
20260509192045 19 53 1.6 8.0 0.38 4.72 2.54 94 1012.6
20260509191554 19 130 3.2 8.0 0.38 4.70 2.51 94 1012.8
20260509191044 19 130 1.6 8.0 0.38 4.67 2.49 94 1012.8
20260509190549 19 54 1.6 11.3 0.41 4.65 2.46 94 1013.0
20260509190047 19 68 1.6 11.3 0.41 4.62 2.44 94 1012.8
20260509185543 19 120 3.2 8.0 0.41 4.57 2.39 94 1012.3
20260509185043 19 84 1.6 6.4 0.41 4.55 2.36 94 1012.3
20260509184542 19 129 3.2 11.3 0.43 4.52 2.34 94 1012.5
20260509184042 19 109 3.2 11.3 0.46 4.50 2.31 94 1012.7
20260509183542 19 165 4.8 11.3 0.43 4.45 2.26 94 1012.9
20260509183045 19 149 3.2 6.4 0.46 4.42 2.24 94 1012.9
20260509182542 19 98 1.6 6.4 0.46 4.39 2.21 94 1012.9
20260509182042 19 101 1.6 6.4 0.46 4.34 2.16 94 1012.8
20260509181542 19 103 3.2 14.5 0.46 4.32 2.13 94 1013.2
20260509181042 19 150 4.8 14.5 0.46 4.27 2.08 94 1012.9
20260509180542 19 140 3.2 11.3 0.48 4.24 2.06 94 1012.7
20260509180052 19 113 4.8 11.3 0.46 4.19 2.01 93 1012.4
20260509175544 19 113 3.2 12.9 0.48 4.17 1.98 93 1012.5
20260509175041 19 82 4.8 12.9 0.48 4.11 1.93 93 1012.4
20260509174542 19 92 3.2 6.4 0.48 4.09 1.91 94 1012.6
20260509174041 19 116 1.6 19.3 0.48 4.04 1.85 94 1013.0
20260509173540 19 90 6.4 19.3 0.48 4.01 1.83 94 1013.2
20260509173054 19 145 4.8 14.5 0.48 3.96 1.78 94 1012.6
20260509172540 19 119 4.8 14.5 0.48 3.94 1.75 94 1012.6
20260509172042 19 107 4.8 14.5 0.46 3.89 1.70 94 1012.4
20260509171542 19 111 4.8 14.5 0.43 3.84 1.65 94 1013.0
20260509171043 19 137 3.2 20.9 0.41 3.81 1.63 94 1012.9
20260509170539 19 78 6.4 20.9 0.38 3.76 1.57 94 1012.7
20260509170039 19 51 8.0 20.9 0.38 3.73 1.55 93 1012.4
20260509165539 19 57 4.8 14.5 0.36 3.68 1.50 94 1012.6
20260509165039 19 122 4.8 16.1 0.33 3.63 1.42 93 1012.4
20260509164539 19 99 6.4 17.7 0.30 3.61 1.42 93 1012.6
20260509164038 19 143 4.8 19.3 0.28 3.56 1.37 93 1012.7
20260509163538 19 102 9.7 19.3 0.25 3.51 1.32 93 1012.8
20260509163038 19 59 8.0 19.3 0.28 3.48 1.30 93 1013.2
20260509162537 19 78 3.2 11.3 0.28 3.45 1.27 93 1013.6
20260509162038 19 69 3.2 11.3 0.28 3.43 1.24 93 1013.3
20260509161551 19 74 1.6 8.0 0.28 3.40 1.22 93 1013.4
20260509161037 19 71 3.2 8.0 0.33 3.40 1.22 93 1013.1
20260509160540 19 70 3.2 12.9 0.33 3.38 1.19 93 1012.8
20260509160037 19 98 3.2 16.1 0.36 3.35 1.17 93 1012.5
20260509155534 19 89 4.8 16.1 0.38 3.33 1.14 93 1012.5
20260509155033 19 74 3.2 9.7 0.38 3.30 1.12 93 1012.5
20260509154539 19 96 1.6 9.7 0.41 3.28 1.09 93 1012.6
20260509154033 19 56 3.2 9.7 0.43 3.25 1.07 93 1012.6
20260509153533 19 53 3.2 9.7 0.46 3.23 1.04 93 1012.9
20260509153050 18 38 3.2 14.5 0.48 3.20 1.02 93 1012.9
20260509152533 18 51 4.8 12.9 0.51 3.17 0.99 93 1012.7
20260509152033 18 62 3.2 14.5 0.51 3.15 0.97 93 1012.9
20260509151533 18 70 4.8 14.5 0.48 3.10 0.91 93 1012.5
20260509151032 18 100 3.2 11.3 0.51 3.07 0.89 93 1012.5
20260509150532 18 77 3.2 11.3 0.51 3.05 0.86 93 1012.5
20260509150032 18 53 4.8 11.3 0.51 3.00 0.81 93 1012.6
20260509145532 18 62 3.2 8.0 0.48 2.92 0.76 93 1012.5
20260509145030 18 55 1.6 6.4 0.46 2.87 0.71 93 1012.6
20260509144529 18 60 1.6 6.4 0.46 2.84 0.69 93 1012.8